This is the latest recevied weather packets stored in our database for station/object AI5KP-13. If no packets are shown the sender has not sent any weather packets the latest 10 day(s).
| Time | Temp. | Humidity | Pressure | Rain* | Wind** | Luminosity | Snow |
|---|---|---|---|---|---|---|---|
| 1777910700 | 21.67° C | 58% | 1009.2 hPa | 0 mm | - | 642 W/m² | - |
| 1777910395 | 21.67° C | 58% | 1009.3 hPa | 0 mm | - | 631 W/m² | - |
| 1777910092 | 21.67° C | 58% | 1009.3 hPa | 0 mm | - | 622 W/m² | - |
| 1777909790 | 21.67° C | 58% | 1009.4 hPa | 0 mm | - | 611 W/m² | - |
| 1777909487 | 21.67° C | 57% | 1009.4 hPa | 0 mm | - | 601 W/m² | - |
| 1777909184 | 21.67° C | 57% | 1009.8 hPa | 0 mm | - | 589 W/m² | - |
| 1777908882 | 21.11° C | 56% | 1009.6 hPa | 0 mm | - | 578 W/m² | - |
| 1777908580 | 21.11° C | 57% | 1009.4 hPa | 0 mm | - | 564 W/m² | - |
| 1777908276 | 21.11° C | 57% | 1009.6 hPa | 0 mm | - | 553 W/m² | - |
| 1777907972 | 21.11° C | 57% | 1009.6 hPa | 0 mm | - | 542 W/m² | - |
| 1777907668 | 20.56° C | 58% | 1009.7 hPa | 0 mm | - | 529 W/m² | - |
| 1777907364 | 20.56° C | 57% | 1009.8 hPa | 0 mm | - | 516 W/m² | - |
| 1777907060 | 20.56° C | 57% | 1009.7 hPa | 0 mm | - | 501 W/m² | - |
| 1777906758 | 20.56° C | 57% | 1009.7 hPa | 0 mm | - | 489 W/m² | - |
| 1777906454 | 20.56° C | 58% | 1009.6 hPa | 0 mm | - | 473 W/m² | - |
| 1777906151 | 20.56° C | 56% | 1009.8 hPa | 0 mm | - | 460 W/m² | - |
| 1777905848 | 20.56° C | 56% | 1009.8 hPa | 0 mm | - | 449 W/m² | - |
| 1777905545 | 20.56° C | 59% | 1009.9 hPa | 0 mm | - | 435 W/m² | - |
| 1777905241 | 20° C | 58% | 1009.9 hPa | 0 mm | - | 420 W/m² | - |
| 1777904939 | 20° C | 56% | 1010 hPa | 0 mm | - | 406 W/m² | - |
| 1777904636 | 20° C | 57% | 1009.9 hPa | 0 mm | - | 392 W/m² | - |
| 1777904333 | 20° C | 56% | 1010 hPa | 0 mm | - | 377 W/m² | - |
| 1777904030 | 20° C | 59% | 1010.1 hPa | 0 mm | - | 362 W/m² | - |
| 1777903727 | 20° C | 57% | 1009.9 hPa | 0 mm | - | 348 W/m² | - |
| 1777903423 | 20° C | 58% | 1010 hPa | 0 mm | - | 332 W/m² | - |
* Rain latest hour (hover to see other rain measurements)
** Current wind speed in m/s (hover to see current wind gust speed)